Wind_Speed
12 11 11 12 11 5 2 3 3 2 5 4 2 5 5 4 12 13 8 4 9 9 2 5 5 5 6 9 5 4 3 3 2 3 3 1 2 3 4 4 5 2 0 3
11 11 11 10 9 4 1 2 4 4 2 5 6 8 13 12 13 14 9 7 7 4 3 4 4 4 8 8 7 5 5 2 3 5 5 4 3 2 2 1 1 5 4 4
11 11 11 10 8 4 5 1 3 3 4 6 8 11 11 13 8 12 13 14 14 9 8 5 4 4 1 4 6 4 6 1 5 5 7 3 2 3 2 2 3 4 5 6
11 12 11 11 8 4 7 2 3 3 4 6 8 10 7 11 9 6 2 7 11 3 2 6 5 2 6 2 2 2 2 3 4 7 7 6 7 6 4 8 5 5 1 7
11 11 11 12 9 4 6 3 4 4 10 10 11 9 9 12 15 6 5 7 11 5 4 6 9 9 8 5 2 2 2 3 5 9 9 9 12 13 13 13 13 14 13 16
11 11 11 10 8 4 5 6 5 3 7 11 9 11 13 12 3 7 10 7 7 4 5 7 9 9 10 12 12 10 7 3 3 8 4 7 8 14 16 14 14 11 13 14
10 10 11 13 13 10 9 7 5 4 9 8 11 15 14 13 12 12 13 13 11 3 5 11 12 14 15 15 15 13 7 7 4 7 5 7 4 3 3 6 8 9 10 11
11 12 15 15 17 10 11 7 5 2 7 10 13 15 11 15 12 13 14 14 12 7 10 8 8 8 9 16 20 19 16 12 6 5 8 10 13 6 5 5 8 3 9 6
12 14 15 14 15 16 4 7 9 2 5 1 6 5 10 11 9 10 12 12 10 9 6 6 8 7 6 5 5 2 15 16 9 6 8 5 7 5 2 2 9 8 4 3
13 13 14 14 13 15 10 4 5 3 4 4 4 5 4 2 3 5 5 3 5 9 5 8 10 11 5 7 8 4 6 8 16 13 9 5 4 2 2 7 3 6 7 6
15 15 13 12 13 12 11 5 4 4 3 7 6 6 8 5 4 5 2 5 3 3 5 4 6 5 6 8 11 5 5 5 8 10 7 7 1 3 6 5 4 6 7 8
16 16 15 13 11 12 10 2 6 6 4 5 6 11 15 16 13 8 2 4 3 2 3 2 3 6 4 9 6 6 4 3 2 3 2 2 0 1 1 4 5 7 11 13
16 16 16 14 11 9 8 5 4 2 2 5 7 3 2 11 20 16 4 2 1 2 2 3 3 4 3 3 4 3 6 3 3 2 2 1 2 3 2 4 8 9 10 12
17 17 17 15 11 7 7 3 2 3 3 3 1 1 7 7 9 14 20 14 4 5 3 3 3 3 3 2 3 5 3 5 5 5 6 2 2 2 5 9 9 11 12 12
18 18 17 16 11 6 2 2 2 2 3 3 6 13 1 7 3 9 9 12 8 5 3 3 3 3 3 0 3 5 3 6 4 5 3 5 7 7 11 11 12 13 14 15
19 19 18 15 7 4 3 1 4 2 3 3 3 2 2 4 2 3 4 5 5 3 3 3 2 1 3 3 3 4 3 3 2 3 0 6 7 8 7 12 13 14 15 14
20 20 19 12 5 4 3 2 2 4 5 2 4 3 1 3 2 2 2 3 3 3 3 3 4 2 3 4 8 4 4 2 2 1 4 6 3 7 8 10 12 13 13 13
20 22 15 4 4 4 4 3 2 5 5 2 3 3 3 3 2 1 1 2 3 3 3 2 4 2 3 4 5 2 1 3 3 2 2 5 5 6 8 9 10 13 13 14
20 15 4 1 3 2 1 7 4 3 3 2 1 3 3 4 1 1 2 2 3 2 3 2 3 3 3 7 11 5 3 3 1 2 4 4 5 7 9 11 12 13 14 14
13 4 2 1 1 7 2 1 2 2 2 2 2 1 3 4 3 0 3 1 2 2 1 2 3 3 4 7 8 6 3 2 0 3 3 5 7 7 9 11 11 11 12 13
4 3 1 5 8 2 1 2 2 3 3 3 2 2 5 1 4 3 1 2 2 3 2 3 2 2 6 7 3 2 2 1 1 2 2 4 6 8 9 10 11 11 12 11
7 6 5 3 2 2 3 2 2 4 1 4 2 1 3 1 2 3 1 2 2 3 2 3 2 2 7 5 3 2 1 1 2 3 4 5 6 7 8 9 11 11 14 14
1 1 2 2 2 4 4 5 3 3 4 4 2 1 2 2 2 2 2 3 3 3 3 2 1 5 9 4 3 3 2 2 3 4 4 5 6 8 8 8 10 11 11 12
2 2 3 4 4 5 4 4 3 3 3 3 2 2 2 0 3 1 3 1 3 3 3 3 3 9 9 4 2 4 4 3 5 4 4 5 5 7 10 7 7 9 8 11
3 3 4 6 5 3 2 2 2 3 3 3 2 2 2 2 3 3 3 3 4 4 3 2 3 6 7 4 3 4 5 3 5 6 5 4 5 6 7 8 5 6 7 7
3 5 4 4 4 5 4 5 5 4 3 2 2 2 2 5 3 4 6 3 4 1 2 1 3 6 7 7 6 6 6 6 7 6 6 6 5 4 8 8 5 5 5 6
4 5 6 6 4 4 4 7 6 5 4 3 2 4 6 1 4 4 4 4 2 2 3 2 2 5 6 6 6 5 5 7 8 8 9 9 9 8 8 8 7 6 5 5
Wind_Direction
337 333 335 333 335 297 212 295 274 95 159 241 222 245 233 303 288 272 269 295 281 267 261 279 284 334 4 24 352 6 1 353 259 110 133 122 214 175 160 260 146 253 61 138
335 337 340 339 340 271 214 260 271 143 208 269 250 261 267 263 276 271 264 262 247 231 279 281 279 17 3 352 28 10 352 228 205 183 167 182 210 184 124 59 300 210 258 113
337 333 329 325 321 324 178 267 276 225 213 247 273 291 287 277 270 283 274 256 265 262 260 237 298 323 78 353 356 266 316 280 344 359 26 27 114 199 169 173 211 160 217 132
352 349 343 331 321 259 176 204 257 315 257 242 250 263 274 286 283 234 61 320 238 183 285 298 266 316 335 335 141 153 309 291 327 323 324 292 278 278 220 217 219 239 356 244
346 341 339 338 332 250 229 236 249 232 272 273 267 256 256 274 279 273 320 233 263 253 238 270 298 310 317 296 274 313 243 277 316 297 284 274 277 263 253 252 249 243 248 258
340 333 329 334 333 253 234 230 253 265 270 263 267 263 259 273 270 271 259 264 287 270 287 331 313 299 288 278 284 297 286 270 258 274 295 304 272 235 250 256 240 253 255 268
1 357 346 331 312 271 255 212 235 221 244 244 258 266 270 267 266 251 281 287 281 324 324 311 280 261 261 259 252 242 241 249 271 277 267 261 46 85 286 282 289 278 268 275
29 16 4 5 357 314 240 236 192 267 256 268 279 268 263 280 270 261 275 272 269 280 290 295 275 256 244 245 241 232 222 228 249 250 243 280 287 262 223 247 290 282 281 280
17 10 5 358 5 17 277 279 217 239 298 307 297 269 234 260 266 266 256 260 262 253 247 243 252 259 286 273 179 220 219 224 223 223 254 249 68 93 102 298 276 55 40 52
2 357 0 4 358 359 348 285 224 220 280 294 280 273 306 256 243 266 278 279 241 211 224 239 248 255 252 256 253 217 182 203 222 225 242 269 11 308 210 246 63 26 15 350
3 357 349 351 356 354 354 319 296 232 264 282 246 242 266 270 235 268 16 293 188 215 236 250 237 250 228 243 258 272 244 214 206 226 220 254 57 178 252 32 340 6 351 342
356 355 351 338 341 351 9 311 333 286 244 299 281 269 262 241 259 288 245 299 312 287 284 253 261 228 230 238 251 184 231 215 281 267 36 122 80 278 42 347 337 334 327 324
348 347 347 344 327 337 341 319 326 295 247 254 240 270 326 249 241 239 259 245 334 211 210 300 304 264 294 234 222 245 224 210 261 270 142 176 215 215 154 330 318 318 311 308
340 339 339 338 331 314 342 341 312 291 276 286 47 355 318 314 249 229 229 246 219 260 292 298 303 315 318 11 332 291 26 176 234 245 274 271 187 131 329 314 306 309 316 325
334 333 332 332 326 284 296 267 268 288 319 310 302 304 287 349 239 215 224 231 250 273 271 237 295 303 292 253 273 255 208 266 242 292 38 309 316 340 325 320 318 318 321 316
330 329 327 326 314 265 260 279 210 246 276 282 304 3 281 1 48 156 183 200 217 233 269 275 261 300 277 289 281 276 247 249 311 333 312 299 309 312 327 328 325 314 310 313
328 327 321 314 264 222 243 349 21 287 290 260 289 290 100 319 241 165 172 191 218 243 272 257 291 266 233 265 270 290 270 228 194 269 293 268 304 326 334 320 330 323 316 308
328 326 321 295 218 226 229 192 310 301 270 282 294 298 263 354 288 209 215 228 218 222 279 254 263 261 242 269 308 319 275 196 207 207 284 309 325 321 344 334 328 328 327 326
328 327 311 214 198 207 115 293 292 218 273 292 308 295 328 339 275 287 196 271 255 118 256 259 280 259 242 326 323 285 213 229 191 248 289 298 317 338 340 337 336 333 332 332
333 359 264 186 126 314 323 134 210 232 199 235 264 300 286 308 326 342 296 244 307 272 111 294 251 267 339 359 314 290 177 168 208 289 291 328 333 332 336 340 339 332 334 328
10 359 356 318 317 241 196 224 237 180 220 193 243 285 316 91 311 336 3 326 293 268 96 280 254 275 8 358 4 90 104 83 331 311 320 320 331 336 335 343 341 340 339 334
310 298 289 285 273 219 226 216 214 229 230 171 238 14 285 275 276 276 196 274 254 263 354 263 256 46 2 342 246 191 169 308 305 300 325 340 339 342 340 338 345 340 333 337
195 213 238 256 188 219 219 193 202 208 183 185 194 256 312 213 234 259 264 243 239 300 232 248 294 18 354 336 215 222 231 269 293 301 321 326 337 342 343 339 343 337 339 342
226 219 244 229 192 232 209 225 188 124 172 178 223 274 269 290 247 266 251 262 265 250 228 219 48 3 341 335 244 255 262 259 279 303 320 351 344 329 329 317 339 338 344 344
231 195 232 226 241 248 225 212 210 178 171 184 198 218 243 222 248 221 265 229 239 233 242 102 17 347 345 338 286 271 285 286 270 276 290 293 302 319 306 318 322 341 344 348
228 231 237 210 239 224 211 215 220 168 168 168 229 223 233 230 225 214 216 237 240 218 66 36 339 345 342 326 307 286 281 280 281 278 268 267 273 265 297 315 298 306 326 342
222 234 234 240 273 255 224 210 209 166 185 223 208 225 220 246 233 227 218 232 301 152 197 228 350 341 334 327 325 289 266 274 280 275 269 274 275 274 282 281 280 295 278 286
Height
752 751 750 748 747 746 747 745 741 737 738 734 734 726 721 715 706 701 703 704 699 694 693 691 680 678 684 686 681 667 672 665 654 654 677 679 677 667 674 661 651 660 654 647
751 749 748 747 746 746 746 744 736 738 739 731 725 724 718 713 708 703 700 698 695 699 699 693 684 686 689 688 681 682 677 667 657 658 667 673 664 672 671 674 671 655 648 643
748 747 746 745 745 744 746 747 735 734 735 730 732 725 716 709 703 706 699 694 692 691 688 687 688 686 691 691 679 686 680 681 673 653 661 661 668 669 669 671 664 660 655 661
746 745 744 743 743 743 745 745 732 728 723 725 728 723 719 709 705 702 705 701 691 700 701 688 682 682 678 677 683 682 684 682 676 670 661 657 656 654 654 664 660 665 652 652
744 744 743 742 741 741 742 739 734 728 720 717 718 718 714 710 702 704 703 708 706 703 702 690 692 684 683 682 677 677 678 680 670 673 660 654 654 648 647 646 646 647 651 644
743 742 741 740 739 739 737 736 735 734 719 715 716 709 707 703 708 703 698 700 701 702 695 691 690 688 688 685 685 683 680 675 675 663 659 657 662 652 646 639 640 641 639 633
741 740 739 738 736 735 734 733 733 728 713 710 707 705 705 702 701 706 699 696 695 692 693 693 688 686 683 680 678 678 687 682 675 667 658 668 633 641 643 643 638 634 634 637
740 739 737 735 731 728 728 728 729 725 710 702 702 703 706 701 698 700 698 695 693 695 696 695 688 676 673 667 663 664 669 677 675 668 648 638 636 634 645 645 638 634 636 636
740 738 736 733 730 727 725 725 724 725 713 705 706 706 707 701 694 694 692 691 692 694 694 694 691 675 663 659 656 662 662 668 676 663 663 656 637 647 650 647 643 640 644 647
739 737 735 732 730 727 725 723 722 723 716 702 704 700 700 700 698 695 690 688 688 689 691 689 681 671 663 664 656 655 670 676 669 664 661 646 649 649 654 657 659 658 657 657
738 735 733 731 728 726 724 721 720 721 715 704 705 703 701 702 699 696 696 691 688 692 691 682 675 671 662 664 654 660 665 662 659 659 663 661 657 657 656 661 657 659 659 659
736 733 731 729 727 725 722 721 720 718 718 708 706 703 700 700 698 697 696 693 696 696 692 685 677 666 662 658 657 658 662 659 660 654 652 659 661 660 661 661 661 660 661 660
735 732 729 726 725 723 722 720 718 717 715 703 699 692 696 695 695 697 699 695 695 698 697 691 679 668 658 657 659 656 654 656 657 657 652 653 658 659 662 663 663 664 663 660
732 730 727 724 722 721 719 718 717 716 712 706 691 695 694 693 692 692 693 692 696 694 692 686 675 669 663 661 662 654 652 655 650 651 649 652 656 659 663 662 662 661 659 661
730 727 724 721 719 718 718 717 716 715 716 707 697 693 692 691 689 689 690 691 693 691 687 683 673 667 664 659 661 652 650 648 651 650 655 656 653 660 663 661 660 658 658 658
727 724 721 719 717 716 716 716 716 714 713 708 698 691 690 689 688 688 688 688 689 689 682 672 670 673 671 662 656 650 652 655 656 653 662 662 662 663 662 662 662 660 657 654
723 720 717 715 714 715 714 712 714 713 712 709 696 685 687 689 687 686 686 688 687 685 678 672 668 666 671 660 654 647 650 655 660 663 662 658 660 662 666 665 663 661 657 654
719 716 713 711 712 713 712 713 712 711 709 706 699 688 684 687 682 680 685 681 682 679 676 672 668 665 665 661 649 653 658 659 662 663 663 663 665 664 664 666 663 660 655 652
715 712 711 711 711 711 710 710 710 710 712 704 702 697 687 686 681 682 681 681 677 678 672 670 671 658 663 655 654 652 657 659 659 663 664 663 663 664 666 666 662 660 654 651
712 711 711 710 711 710 710 709 709 707 707 705 699 695 691 689 680 679 679 680 674 670 667 671 667 658 658 664 665 660 660 663 665 665 663 664 666 666 666 665 663 659 655 653
713 712 711 712 710 709 707 708 705 702 698 694 692 691 687 690 685 680 684 679 677 673 667 667 659 656 658 669 671 665 665 667 668 668 667 667 666 665 664 664 662 659 656 653
716 715 713 711 708 705 704 701 700 695 685 688 686 686 688 687 690 684 683 679 679 675 675 671 661 655 664 670 671 667 668 669 669 668 666 667 666 665 665 663 663 661 658 654
713 713 709 708 706 704 698 696 687 687 685 685 685 686 688 687 689 686 683 682 675 673 672 663 656 660 663 667 667 668 669 670 669 668 667 667 665 665 665 663 664 662 658 655
710 710 709 703 696 691 680 675 675 680 682 684 685 685 687 687 686 686 684 676 677 670 668 658 660 667 669 667 668 668 668 670 670 668 667 669 669 668 666 664 663 661 658 655
707 708 699 690 681 681 681 681 682 682 683 685 686 687 688 684 687 681 677 678 669 659 653 658 671 671 667 667 668 667 668 670 670 668 667 669 668 667 665 663 662 660 658 656
704 699 691 682 685 681 686 683 681 683 685 688 686 685 689 683 678 676 672 666 660 654 658 672 672 670 670 668 668 668 668 668 666 665 666 665 665 664 663 661 660 659 657 655
693 686 682 680 677 675 675 676 677 682 683 683 683 687 681 675 671 666 657 655 654 663 669 670 671 672 672 670 668 667 667 665 663 662 662 661 661 660 660 658 657 657 655 654